"2022-05-15 00:01:00",2937285,2.214,53.33181,6.582659,0.1796589,2.54,0,1.048,30.70658,12.67711,0.263064,1.66,0,-999,0,10.68,77.29,10.68,10.66,0.2,0,0,9.51,13.24,0.2,102.1935,3.312,3.312,3.308,100,0,0,0,0.61,152.7,152.7
"2022-05-15 00:02:00",2937286,2.267333,52.93736,5.37074,0.3996743,3.05,0,0.7333333,20.07372,8.61697,0.08170406,0.88,0,-999,0,10.7,77.46,10.68,10.67,0.2,0,0,9.49,13.24,0.2,102.1938,3.311,3.311,3.309,100,0,0,0,0.61,152.7,152.7
"2022-05-15 00:03:00",2937287,2.008,47.39493,6.234494,0.271421,2.41,0,0.8299999,25.21119,16.77957,0.1662127,1.2,0,-999,0,10.61,77.97,10.64,10.65,0.2,0,0,9.48,13.25,0.2,102.1928,3.31,3.312,3.31,100,0,0,0,0.61,152.7,152.7
"2022-05-15 00:04:00",2937288,2.106667,58.6062,10.02545,0.3035932,2.59,0,0.79,40.44731,19.98976,0.1966045,1.19,0,-999,0,10.69,77.86,10.71,10.7,0.2,0,0,9.46,13.23,0.2,102.1925,3.304,3.31,3.304,100,0,0,0,0.61,152.7,152.7
"2022-05-15 00:05:00",2937289,2.105333,58.13751,5.325576,0.3118732,2.58,0,0.8893334,40.66625,8.801849,0.1054809,1.1,0,-999,0,10.73,77.59,10.74,10.74,0.2,0,0,9.46,13.23,0.2,102.1925,3.306,3.308,3.305,100,0,0,0,0.61,152.7,152.7
"2022-05-15 00:06:00",2937290,2.174,53.34697,9.09187,0.3945089,2.85,0,0.832,35.36758,8.850546,0.1227572,1.09,0,-999,0,10.8,77.53,10.78,10.76,0.2,0,0,9.44,13.24,0.2,102.1916,3.308,3.309,3.307,100,0,0,0,0.61,152.7,152.7
"2022-05-15 00:07:00",2937291,2.017333,58.79375,4.993428,0.4570845,3.04,0,0.8673334,46.79839,9.583535,0.1975674,1.23,0,-999,0,10.8,77.64,10.79,10.8,0.2,0,0,9.44,13.24,0.2,102.1947,3.307,3.311,3.307,100,0,0,0,0.61,152.7,152.7
"2022-05-15 00:08:00",2937292,1.78,60.23671,9.232266,0.4319105,2.55,0,0.78,36.51146,11.91686,0.2446767,1.41,0,-999,0,10.82,77.55,10.84,10.81,0.2,0,0,9.44,13.24,0.2,102.1933,3.308,3.309,3.307,100,0,0,0,0.61,152.7,152.7
"2022-05-15 00:09:00",2937293,2.056,58.46865,4.658172,0.2849047,2.63,0,0.9866667,34.4273,11.62631,0.2808005,1.53,0,-999,0,10.9,77.35,10.88,10.87,0.2,0,0,9.44,13.25,0.2,102.1964,3.308,3.309,3.308,100,0,0,0,0.61,152.7,152.7
"2022-05-15 00:10:00",2937294,2.132667,62.33542,6.912459,0.2630961,2.67,0,0.8546668,41.66718,9.478827,0.1770825,1.25,0,-999,0,10.9,77.35,10.91,10.9,0.2,0,0,9.42,13.23,0.2,102.1942,3.305,3.309,3.305,100,0,0,0,0.61,152.7,152.7
"2022-05-15 00:11:00",2937295,1.995333,55.06446,4.372679,0.3840289,2.84,0,0.8533333,36.42036,13.14703,0.1604854,1.12,0,-999,0,10.9,77.4,10.91,10.9,0.2,0,0,9.41,13.24,0.2,102.1956,3.309,3.309,3.304,100,0,0,0,0.61,152.7,152.7
"2022-05-15 00:12:00",2937296,1.835333,55.46904,5.862613,0.2334914,2.29,0,0.7533333,31.86914,7.707479,0.1227826,0.93,0,-999,0,10.9,77.54,10.9,10.9,0.2,0,0,9.41,13.24,0.2,102.1883,3.31,3.311,3.307,100,0,0,0,0.61,152.7,152.7
"2022-05-15 00:13:00",2937297,2.110667,61.00012,5.655226,0.2618261,2.6,0,0.7606667,28.69309,10.41846,0.0792857,0.92,0,-999,0,10.9,77.79,10.88,10.9,0.2,0,0,9.39,13.24,0.2,102.1933,3.309,3.311,3.306,100,0,0,0,0.61,152.7,152.7
"2022-05-15 00:14:00",2937298,1.794,55.72271,4.870002,0.1118213,2.02,0,0.8673334,36.73533,6.523554,0.1609334,1.13,0,-999,0,10.88,77.96,10.87,10.89,0.2,0,0,9.39,13.24,0.2,102.1896,3.307,3.309,3.306,100,0,0,0,0.61,152.7,152.7
"2022-05-15 00:15:00",2937299,1.79,61.00224,8.341068,0.2134791,2.11,0,0.642,39.32122,13.01938,0.1221038,0.83,0,-999,0,10.8,78.03,10.83,10.82,0.2,0,0,9.39,13.25,0.2,102.1869,3.308,3.309,3.306,100,0,0,0,0.61,152.7,152.7
"2022-05-15 00:16:00",2937300,1.888,52.99923,2.756187,0.118951,2.05,0,0.788,17.81313,10.23853,0.08239741,0.94,0,-999,0,10.8,78.23,10.8,10.8,0.2,0,0,9.39,13.24,0.2,102.1868,3.307,3.311,3.307,100,0,0,0,0.61,152.7,152.7
"2022-05-15 00:17:00",2937301,1.83,58.86822,6.467953,0.2172556,2.16,0,0.8500001,30.17578,12.26311,0.1662929,1.42,0,-999,0,10.8,78.2,10.79,10.8,0.2,0,0,9.38,13.25,0.2,102.1917,3.31,3.31,3.307,100,0,0,0,0.61,152.7,152.7
"2022-05-15 00:18:00",2937302,1.441333,64.46552,4.922414,0.1925917,1.79,0,0.7926666,40.46599,7.246585,0.133839,1.1,0,-999,0,10.8,77.93,10.78,10.8,0.2,0,0,9.37,13.23,0.2,102.1861,3.306,3.31,3.306,100,0,0,0,0.61,152.7,152.7
"2022-05-15 00:19:00",2937303,1.705333,52.45036,7.323447,0.1691101,2.04,0,0.5606667,12.24657,13.15302,0.09312835,0.72,0,-999,0,10.8,78.13,10.79,10.8,0.2,0,0,9.37,13.24,0.2,102.1864,3.308,3.31,3.307,100,0,0,0,0.61,152.7,152.7
"2022-05-15 00:20:00",2937304,1.398667,52.33014,5.508975,0.1997955,1.75,0,0.5173333,25.38396,16.20852,0.06016275,0.67,0,-999,0,10.79,78.44,10.77,10.79,0.2,0,0,9.37,13.24,0.2,102.1874,3.306,3.308,3.305,100,0,0,0,0.61,152.7,152.7
"2022-05-15 00:21:00",2937305,1.334,47.60554,7.943106,0.2463277,1.78,0,0.4026667,11.81972,13.0897,0.06687966,0.56,0,-999,0,10.73,78.43,10.73,10.75,0.2,0,0,9.37,13.25,0.2,102.1885,3.309,3.31,3.307,100,0,0,0,0.61,152.7,152.7
"2022-05-15 00:22:00",2937306,1.228667,50.00424,10.32387,0.1400889,1.62,0,0.122,65.66446,54.13802,0.0463609,0.18,0,-999,0,10.7,78.61,10.71,10.74,0.2,0,0,9.36,13.24,0.2,102.1883,3.309,3.309,3.307,100,0,0,0,0.61,152.7,152.7
"2022-05-15 00:23:00",2937307,1.324,61.26512,10.46786,0.3038377,1.84,0,0.406,350.8882,16.76628,0.1198221,0.56,0,-999,0,10.7,78.63,10.7,10.71,0.2,0,0,9.35,13.24,0.2,102.1849,3.309,3.311,3.308,100,0,0,0,0.61,152.7,152.7
"2022-05-15 00:24:00",2937308,1.536667,61.69673,13.4646,0.4068523,2.51,0,0.2233333,341.7551,34.7766,0.09442222,0.44,0,-999,0,10.65,78.46,10.64,10.66,0.2,0,0,9.35,13.25,0.2,102.1849,3.309,3.31,3.308,100,0,0,0,0.61,152.7,152.7
"2022-05-15 00:25:00",2937309,1.135333,63.3897,8.650914,0.2506489,1.56,0,0.286,51.79499,65.25806,0.1816884,0.77,0,-999,0,10.6,78.14,10.63,10.65,0.2,0,0,9.35,13.25,0.2,102.1831,3.309,3.31,3.308,100,0,0,0,0.61,152.7,152.7
"2022-05-15 00:26:00",2937310,1.262667,60.8541,10.17159,0.1825912,1.59,0,0.2526667,36.24363,19.54635,0.1293814,0.48,0,-999,0,10.69,78.03,10.71,10.67,0.2,0,0,9.35,13.24,0.2,102.1823,3.307,3.308,3.306,100,0,0,0,0.61,152.7,152.7
"2022-05-15 00:27:00",2937311,1.184,62.83643,22.16806,0.5945508,2.38,0,0.5319999,15.0218,17.52607,0.1694776,0.87,0,-999,0,10.73,78.04,10.77,10.74,0.2,0,0,9.34,13.24,0.2,102.1831,3.307,3.309,3.307,100,0,0,0,0.61,152.7,152.7
"2022-05-15 00:28:00",2937312,0.7580001,41.22337,19.02081,0.2450089,1.14,0,1.011333,101.0295,27.70368,0.4716053,1.87,0,-999,0,10.87,77.62,10.97,10.87,0.2,0,0,9.32,13.24,0.2,102.1798,3.307,3.308,3.306,100,0,0,0,0.61,152.7,152.7
"2022-05-15 00:29:00",2937313,1.084,74.20191,14.38503,0.2417933,1.59,0,0.2606667,28.4767,56.1755,0.1326382,0.52,0,-999,0,10.9,77.79,10.98,10.9,0.2,0,0,9.32,13.25,0.2,102.1798,3.309,3.309,3.306,100,0,0,0,0.61,152.7,152.7
"2022-05-15 00:30:00",2937314,0.8133334,58.60406,23.0136,0.2194741,1.23,0,0.2213334,146.146,69.95206,0.08269355,0.38,0,-999,0,10.8,77.77,10.88,10.83,0.2,0,0,9.32,13.23,0.2,102.177,3.308,3.308,3.305,100,0,0,0,0.61,152.7,152.7
"2022-05-15 00:31:00",2937315,1.698,76.80905,38.70903,0.7234196,3.06,0,0.9766666,49.50274,18.4663,0.5303919,2.02,0,-999,0,10.88,77.13,11,10.89,0.2,0,0,9.31,13.24,0.2,102.1812,3.31,3.31,3.307,100,0,0,0,0.61,152.7,152.7
"2022-05-15 00:32:00",2937316,1.492667,60.06734,11.90199,0.4663685,2.5,0,1.441333,98.92859,20.15677,0.476807,2.29,0,-999,0,11.23,75.59,11.28,11.14,0.2,0,0,9.3,13.24,0.2,102.1813,3.308,3.31,3.308,100,0,0,0,0.61,152.7,152.7
"2022-05-15 00:33:00",2937317,2.051333,85.38916,17.01659,0.4749437,3.31,0,0.7326667,92.03442,23.49306,0.195873,1.01,0,-999,0,11.13,75.57,11.17,11.06,0.2,0,0,9.3,13.22,0.2,102.1825,3.307,3.307,3.304,100,0,0,0,0.61,152.7,152.7
"2022-05-15 00:34:00",2937318,1.087333,46.71597,23.99059,0.4442742,1.93,0,0.1913333,80.99023,44.43225,0.1048724,0.44,0,-999,0,11.07,75.84,11.11,10.97,0.2,0,0,9.3,13.25,0.2,102.1826,3.308,3.309,3.307,100,0,0,0,0.61,152.7,152.7
"2022-05-15 00:35:00",2937319,0.9753333,34.08926,20.93243,0.2329482,1.46,0,0.372,337.095,27.44273,0.113031,0.52,0,-999,0,11.08,75.76,11.13,10.97,0.2,0,0,9.3,13.23,0.2,102.181,3.307,3.309,3.305,100,0,0,0,0.61,152.7,152.7
"2022-05-15 00:36:00",2937320,0.9399999,49.05257,10.72767,0.2444859,1.5,0,0.4846667,335.5547,15.45831,0.08106513,0.62,0,-999,0,11.1,75.63,11.14,10.99,0.2,0,0,9.3,13.25,0.2,102.1786,3.309,3.309,3.307,100,0,0,0,0.61,152.7,152.7
"2022-05-15 00:37:00",2937321,0.7193334,31.45919,23.39017,0.2171779,1.22,0,0.434,316.6094,20.51948,0.0838093,0.58,0,-999,0,11.1,75.52,11.15,11.04,0.2,0,0,9.3,13.25,0.2,102.183,3.308,3.31,3.308,100,0,0,0,0.61,152.7,152.7
"2022-05-15 00:38:00",2937322,1.002667,52.23105,12.88949,0.1540332,1.24,0,0.832,300.3207,10.19959,0.1794139,1.11,0,-999,0,11.07,75.8,11.09,11.02,0.2,0,0,9.28,13.25,0.2,102.1786,3.309,3.31,3.308,100,0,0,0,0.61,152.7,152.7
"2022-05-15 00:39:00",2937323,0.686,29.19442,18.661,0.1288306,0.93,0,0.268,228.4198,85.23586,0.1586695,0.72,0,-999,0,10.92,76.19,10.87,10.89,0.2,0,0,9.28,13.25,0.2,102.1778,3.309,3.31,3.308,100,0,0,0,0.61,152.7,152.7
"2022-05-15 00:40:00",2937324,0.696,9.333853,5.411602,0.08056467,0.84,0,0.8366667,294.4457,10.38686,0.09699944,0.97,0,-999,0,10.8,76.6,10.75,10.79,0.2,0,0,9.28,13.25,0.2,102.1784,3.307,3.309,3.307,100,0,0,0,0.61,152.7,152.7
"2022-05-15 00:41:00",2937325,0.8986667,20.38121,28.99665,0.278397,1.66,0,0.7966667,289.6723,8.912724,0.1241326,0.98,0,-999,0,10.79,77.25,10.67,10.75,0.2,0,0,9.28,13.25,0.2,102.179,3.309,3.31,3.307,100,0,0,0,0.61,152.7,152.7
"2022-05-15 00:42:00",2937326,0.882,11.93234,24.18252,0.1953185,1.28,0,0.7766666,299.3438,7.503823,0.1945137,1.09,0,-999,0,10.69,77.61,10.53,10.65,0.2,0,0,9.28,13.25,0.2,102.1807,3.307,3.31,3.307,100,0,0,0,0.61,152.7,152.7
"2022-05-15 00:43:00",2937327,0.798,357.9536,14.81053,0.122322,1,0,0.9646667,299.9359,4.792977,0.1185392,1.11,0,-999,0,10.6,77.87,10.44,10.6,0.2,0,0,9.27,13.24,0.2,102.1788,3.308,3.31,3.306,100,0,0,0,0.61,152.7,152.7
"2022-05-15 00:44:00",2937328,0.8360001,349.9635,10.34109,0.08317051,0.98,0,0.8219999,310.5895,6.589095,0.1443237,0.96,0,-999,0,10.53,78.37,10.32,10.51,0.2,0,0,9.26,13.25,0.2,102.1813,3.308,3.309,3.308,100,0,0,0,0.61,152.7,152.7
"2022-05-15 00:45:00",2937329,0.8333333,351.5543,14.35922,0.1109755,0.98,0,0.6666667,301.3961,11.45637,0.1098281,0.83,0,-999,0,10.47,78.61,10.27,10.43,0.2,0,0,9.26,13.25,0.2,102.18,3.308,3.308,3.307,100,0,0,0,0.61,152.7,152.7
"2022-05-15 00:46:00",2937330,0.9439999,347.9941,6.256211,0.1438425,1.31,0,0.9706667,287.2033,4.352906,0.1233135,1.22,0,-999,0,10.4,79.02,10.27,10.42,0.2,0,0,9.26,13.24,0.2,102.1831,3.306,3.309,3.306,100,0,0,0,0.61,152.7,152.7
"2022-05-15 00:47:00",2937331,0.896,354.6968,19.85061,0.1636582,1.1,0,1.354667,288.6627,7.067048,0.1164398,1.57,0,-999,0,10.4,79.03,10.27,10.41,0.2,0,0,9.26,13.25,0.2,102.1762,3.309,3.31,3.306,100,0,0,0,0.61,152.7,152.7
"2022-05-15 00:48:00",2937332,0.9473333,1.546993,12.28269,0.195907,1.25,0,0.6626666,282.7988,11.44834,0.3437143,1.37,0,-999,0,10.35,79.23,10.22,10.38,0.2,0,0,9.26,13.23,0.2,102.1813,3.306,3.309,3.304,100,0,0,0,0.61,152.7,152.7
"2022-05-15 00:49:00",2937333,1.214667,347.9862,7.536859,0.1325074,1.42,0,0.2966667,276.1499,11.23758,0.06699917,0.4,0,-999,0,10.27,79.53,10.18,10.32,0.2,0,0,9.24,13.24,0.2,102.1777,3.308,3.308,3.305,100,0,0,0,0.61,152.7,152.7
"2022-05-15 00:50:00",2937334,1.402,347.8648,3.499018,0.0340979,1.45,0,0.7446666,290.675,8.785405,0.1911323,1,0,-999,0,10.2,80.5,10.07,10.26,0.2,0,0,9.24,13.24,0.2,102.1802,3.308,3.31,3.308,100,0,0,0,0.61,152.7,152.7
"2022-05-15 00:51:00",2937335,1.32,358.7278,18.70868,0.3344448,1.74,0,0.7193334,289.3266,6.482612,0.1538167,0.94,0,-999,0,10.12,80.9,9.95,10.16,0.2,0,0,9.23,13.24,0.2,102.1818,3.306,3.308,3.306,100,0,0,0,0.61,152.7,152.7
"2022-05-15 00:52:00",2937336,1.453333,350.245,9.657541,0.164749,1.65,0,1.019333,294.2132,7.320376,0.1436415,1.21,0,-999,0,10.07,80.7,9.94,10.11,0.2,0,0,9.21,13.24,0.2,102.1803,3.306,3.308,3.306,100,0,0,0,0.61,152.7,152.7
"2022-05-15 00:53:00",2937337,1.683333,357.7998,2.371904,0.03788872,1.75,0,1.177333,303.205,4.335447,0.1082877,1.41,0,-999,0,10.02,80.7,9.87,10.05,0.2,0,0,9.21,13.25,0.2,102.1799,3.308,3.308,3.306,100,0,0,0,0.61,152.7,152.7
"2022-05-15 00:54:00",2937338,1.838,4.466455,3.094908,0.08681013,1.95,0,1.392,314.7965,7.876163,0.06949341,1.52,0,-999,0,9.87,80.6,9.64,9.86,0.2,0,0,9.2,13.25,0.2,102.1776,3.308,3.309,3.308,100,0,0,0,0.61,152.6,152.7
"2022-05-15 00:55:00",2937339,1.991333,7.640534,6.259272,0.2117189,2.34,0,1.305333,323.8646,3.221083,0.05004888,1.38,0,-999,0,9.77,80.7,9.65,9.79,0.2,0,0,9.19,13.24,0.2,102.1764,3.308,3.309,3.306,100,0,0,0,0.61,152.6,152.7
"2022-05-15 00:56:00",2937340,2.294,7.198805,4.74885,0.1495237,2.59,0,1.397334,325.7863,4.864202,0.0894775,1.62,0,-999,0,9.79,81.7,9.71,9.84,0.2,0,0,9.15,13.24,0.2,102.1792,3.308,3.309,3.307,100,0,0,0,0.61,152.6,152.7
"2022-05-15 00:57:00",2937341,2.564667,10.86695,3.201051,0.08762547,2.69,0,1.16,336.0022,6.175034,0.1013904,1.32,0,-999,0,9.67,82.4,9.63,9.79,0.2,0,0,9.15,13.24,0.2,102.1791,3.308,3.31,3.308,100,0,0,0,0.61,152.6,152.7
"2022-05-15 00:58:00",2937342,2.578,13.26626,3.150884,0.1184455,2.79,0,1.405333,344.1353,4.812388,0.1857908,1.88,0,-999,0,9.59,83.1,9.56,9.73,0.2,0,0,9.15,13.25,0.2,102.1748,3.31,3.31,3.308,100,0,0,0,0.61,152.6,152.7
"2022-05-15 00:59:00",2937343,2.765333,14.46511,4.910209,0.1159808,3,0,1.65,357.5998,3.281584,0.1491308,1.89,0,-999,0,9.5,83.8,9.49,9.66,0.2,0,0,9.12,13.25,0.2,102.1775,3.308,3.31,3.308,100,0,0,0,0.61,152.6,152.7
"2022-05-15 01:00:00",2937344,2.988,17.46541,5.30184,0.2085889,3.38,0,1.810667,352.8664,2.801118,0.1690154,2.01,0,-999,0,9.5,84,9.5,9.64,0.2,0,0,9.11,13.25,0.2,102.1742,3.308,3.309,3.306,100,0,0,0,0.61,152.6,152.7
"2022-05-15 01:01:00",2937345,2.929333,30.19999,4.322421,0.215823,3.35,0,1.716,5.468609,7.017805,0.1760606,1.93,0,-999,0,9.55,83.5,9.62,9.69,0.2,0,0,9.1,13.24,0.2,102.1745,3.305,3.308,3.305,100,0,0,0,0.61,152.6,152.6
"2022-05-15 01:02:00",2937346,2.683333,25.79967,3.350199,0.1292371,2.93,0,1.514,6.998332,3.846318,0.3311757,2.11,0,-999,0,9.66,83,9.72,9.78,0.2,0,0,9.09,13.24,0.2,102.1759,3.308,3.308,3.304,100,0,0,0,0.61,152.6,152.6
"2022-05-15 01:03:00",2937347,2.562667,30.32551,6.240729,0.1910136,2.85,0,1.407333,11.61617,6.121199,0.2598581,1.95,0,-999,0,9.78,82.9,9.85,9.89,0.2,0,0,9.08,13.25,0.2,102.1724,3.308,3.308,3.307,100,0,0,0,0.61,152.6,152.6
"2022-05-15 01:04:00",2937348,2.418,33.93488,3.904448,0.1639187,2.67,0,1.242,15.20455,4.365752,0.2073387,1.72,0,-999,0,9.83,82.8,9.91,9.96,0.2,0,0,9.07,13.24,0.2,102.1798,3.308,3.308,3.306,100,0,0,0,0.61,152.6,152.6
"2022-05-15 01:05:00",2937349,2.035333,27.53442,5.377301,0.2228861,2.54,0,1.095333,16.99994,5.47315,0.2034983,1.4,0,-999,0,9.9,82.6,9.97,9.99,0.2,0,0,9.07,13.24,0.2,102.178,3.306,3.308,3.306,100,0,0,0,0.61,152.6,152.6
"2022-05-15 01:06:00",2937350,2.332,33.66646,2.820191,0.1847954,2.73,0,0.9540001,26.19195,12.85718,0.1956119,1.34,0,-999,0,10,82.3,10.05,10.05,0.2,0,0,9.07,13.24,0.2,102.1789,3.308,3.308,3.304,100,0,0,0,0.61,152.6,152.6
"2022-05-15 01:07:00",2937351,2.366,37.93162,5.130203,0.1749209,2.75,0,1.104667,14.67033,5.118122,0.1759874,1.51,0,-999,0,10,82.1,10.05,10.07,0.2,0,0,9.06,13.24,0.2,102.1797,3.307,3.308,3.306,100,0,0,0,0.61,152.6,152.6
"2022-05-15 01:08:00",2937352,2.462,43.47082,4.158138,0.3261942,3.06,0,0.8953333,14.60011,3.842719,0.1070119,1.11,0,-999,0,10,81.8,10.02,10.03,0.2,0,0,9.06,13.25,0.2,102.1755,3.307,3.308,3.306,100,0,0,0,0.61,152.6,152.6
"2022-05-15 01:09:00",2937353,2.368,45.53258,3.774377,0.2117924,2.7,0,0.9066667,19.39305,5.422419,0.09321419,1.05,0,-999,0,9.91,81.7,9.98,10,0.2,0,0,9.04,13.25,0.2,102.1769,3.309,3.309,3.306,100,0,0,0,0.61,152.6,152.6
"2022-05-15 01:10:00",2937354,2.338,49.79892,2.637371,0.1502531,2.58,0,1.1,29.53431,5.06942,0.1447296,1.42,0,-999,0,9.9,81.3,9.95,9.96,0.2,0,0,9.03,13.25,0.2,102.1744,3.308,3.309,3.306,100,0,0,0,0.61,152.6,152.6
"2022-05-15 01:11:00",2937355,2.415334,46.93294,2.235029,0.189732,2.85,0,1.252,33.46664,2.445713,0.1096783,1.47,0,-999,0,9.91,81,9.97,9.95,0.2,0,0,9.03,13.25,0.2,102.1743,3.308,3.308,3.308,100,0,0,0,0.61,152.6,152.6
"2022-05-15 01:12:00",2937356,2.399333,49.66127,4.433598,0.1567786,2.64,0,1.269333,30.4015,3.962151,0.07103678,1.37,0,-999,0,10,80.5,10,10.01,0.2,0,0,9.01,13.24,0.2,102.177,3.307,3.308,3.306,100,0,0,0,0.61,152.6,152.6
"2022-05-15 01:13:00",2937357,2.274,49.26661,6.312983,0.1641057,2.64,0,1.292667,28.74614,6.832671,0.1102401,1.57,0,-999,0,10,80.6,10.03,10.02,0.2,0,0,9.01,13.24,0.2,102.1728,3.305,3.307,3.305,100,0,0,0,0.61,152.6,152.6
"2022-05-15 01:14:00",2937358,2.053334,50.53328,3.755557,0.08443274,2.28,0,1.192667,32.79955,3.080684,0.14257,1.37,0,-999,0,10.1,80.5,10.08,10.06,0.2,0,0,9.01,13.24,0.2,102.1728,3.306,3.307,3.305,100,0,0,0,0.61,152.6,152.6
"2022-05-15 01:15:00",2937359,2.064667,46.93256,5.13003,0.13341,2.31,0,1.162667,31.53318,2.217034,0.1142784,1.33,0,-999,0,10.18,80.3,10.15,10.11,0.2,0,0,9.01,13.24,0.2,102.1744,3.307,3.308,3.305,100,0,0,0,0.61,152.6,152.6
"2022-05-15 01:16:00",2937360,2.128,51.26535,2.998378,0.126185,2.31,0,1.163333,26.38791,7.197179,0.1832909,1.64,0,-999,0,10.2,80.1,10.19,10.16,0.2,0,0,9.01,13.23,0.2,102.1748,3.304,3.307,3.304,100,0,0,0,0.61,152.6,152.6
"2022-05-15 01:17:00",2937361,1.904,50.53345,2.4728,0.1745394,2.13,0,1.200667,30.06966,4.153152,0.1157852,1.48,0,-999,0,10.2,79.85,10.18,10.16,0.2,0,0,9,13.23,0.2,102.1786,3.305,3.307,3.304,100,0,0,0,0.61,152.6,152.6
"2022-05-15 01:18:00",2937362,1.703333,47.80221,4.212835,0.1423923,2.02,0,1.070667,22.86482,6.458539,0.08061982,1.21,0,-999,0,10.26,79.86,10.24,10.19,0.2,0,0,8.99,13.24,0.2,102.1776,3.307,3.307,3.304,100,0,0,0,0.61,152.6,152.6
"2022-05-15 01:19:00",2937363,1.593334,42.26572,4.931617,0.09082342,1.81,0,0.9540001,11.00216,10.03028,0.1303738,1.13,0,-999,0,10.3,80.3,10.31,10.25,0.2,0,0,8.99,13.23,0.2,102.175,3.304,3.308,3.304,100,0,0,0,0.61,152.6,152.6
"2022-05-15 01:20:00",2937364,1.524667,48.46694,2.801399,0.1280556,1.69,0,0.9399999,9.078115,5.841147,0.05440586,1.06,0,-999,0,10.31,80.4,10.33,10.29,0.2,0,0,8.99,13.24,0.2,102.1734,3.306,3.306,3.303,100,0,0,0,0.61,152.6,152.6
"2022-05-15 01:21:00",2937365,1.482,44.60331,3.910225,0.1479279,1.76,0,0.96,7.998961,4.097664,0.05785037,1.08,0,-999,0,10.3,80.2,10.35,10.32,0.2,0,0,8.99,13.25,0.2,102.172,3.308,3.308,3.306,100,0,0,0,0.61,152.6,152.6
"2022-05-15 01:22:00",2937366,1.487333,49.86637,2.917857,0.1521607,1.71,0,0.9693334,10.00805,5.107055,0.06071427,1.07,0,-999,0,10.3,80,10.36,10.32,0.2,0,0,8.98,13.24,0.2,102.1663,3.306,3.308,3.306,100,0,0,0,0.61,152.6,152.6
"2022-05-15 01:23:00",2937367,1.543333,49.73575,5.129168,0.1081768,1.74,0,0.974,5.744483,5.202463,0.07525955,1.09,0,-999,0,10.3,79.87,10.34,10.32,0.2,0,0,8.97,13.24,0.2,102.166,3.308,3.308,3.306,100,0,0,0,0.61,152.6,152.6
"2022-05-15 01:24:00",2937368,1.404,55.3229,6.914664,0.2193262,1.84,0,0.8153334,7.727752,5.381528,0.1253723,1.06,0,-999,0,10.3,79.57,10.36,10.32,0.2,0,0,8.97,13.24,0.2,102.1633,3.305,3.307,3.304,100,0,0,0,0.61,152.6,152.6
"2022-05-15 01:25:00",2937369,1.354,44.2,5.989325,0.117121,1.56,0,0.888,10.96725,9.454865,0.08870926,1.08,0,-999,0,10.31,79.51,10.34,10.32,0.2,0,0,8.97,13.24,0.2,102.1664,3.306,3.308,3.305,100,0,0,0,0.61,152.6,152.6
"2022-05-15 01:26:00",2937370,1.337333,48.93531,3.106859,0.07706852,1.49,0,0.706,357.7285,8.589828,0.04687572,0.82,0,-999,0,10.3,79.49,10.35,10.32,0.2,0,0,8.97,13.24,0.2,102.1649,3.304,3.306,3.304,100,0,0,0,0.61,152.6,152.6
"2022-05-15 01:27:00",2937371,1.208,44.80733,6.59139,0.08304214,1.33,0,0.7413332,349.1038,11.48018,0.04030991,0.8,0,-999,0,10.3,79.71,10.34,10.32,0.2,0,0,8.97,13.25,0.2,102.1693,3.306,3.307,3.304,100,0,0,0,0.61,152.6,152.6
"2022-05-15 01:28:00",2937372,1.237333,45.39867,3.240689,0.08729006,1.41,0,0.682,348.7292,3.886758,0.08296183,0.83,0,-999,0,10.3,79.42,10.3,10.28,0.2,0,0,8.95,13.25,0.2,102.1695,3.307,3.308,3.305,100,0,0,0,0.61,152.6,152.6
"2022-05-15 01:29:00",2937373,1.257333,45.80818,12.47169,0.2932454,1.84,0,0.7386667,339.109,9.445557,0.08624513,0.92,0,-999,0,10.22,79.46,10.27,10.24,0.2,0,0,8.94,13.25,0.2,102.1677,3.307,3.308,3.306,100,0,0,0,0.61,152.6,152.6
"2022-05-15 01:30:00",2937374,1.094,30.26471,6.821517,0.1243007,1.31,0,0.4073333,348.3795,13.87955,0.07663478,0.54,0,-999,0,10.15,79.27,10.2,10.18,0.2,0,0,8.94,13.24,0.2,102.1696,3.304,3.308,3.304,100,0,0,0,0.61,152.6,152.6
"2022-05-15 01:31:00",2937375,1.188667,21.86352,6.191665,0.1431021,1.46,0,0.6133333,320.0051,7.514636,0.06487598,0.72,0,-999,0,10.17,79.31,10.21,10.17,0.2,0,0,8.94,13.25,0.2,102.1731,3.309,3.309,3.305,100,0,0,0,0.61,152.6,152.6
"2022-05-15 01:32:00",2937376,1.245333,16.53438,6.268523,0.1429623,1.53,0,0.9106666,310.6667,3.552606,0.149107,1.11,0,-999,0,10.1,79.6,10.15,10.15,0.2,0,0,8.92,13.24,0.2,102.1703,3.306,3.308,3.306,100,0,0,0,0.61,152.6,152.6
"2022-05-15 01:33:00",2937377,1.214666,12.86758,6.845728,0.09499942,1.37,0,0.8786666,302.9366,5.419313,0.08875935,1.07,0,-999,0,10.02,80.1,10.02,10.06,0.2,0,0,8.92,13.24,0.2,102.1729,3.306,3.307,3.305,100,0,0,0,0.61,152.6,152.6
"2022-05-15 01:34:00",2937378,1.274,17.06567,5.55373,0.1118213,1.49,0,1.03,304.6003,3.516664,0.08033264,1.15,0,-999,0,9.95,80.5,9.89,9.97,0.2,0,0,8.91,13.25,0.2,102.1698,3.305,3.307,3.304,100,0,0,0,0.61,152.6,152.6
"2022-05-15 01:35:00",2937379,1.244,18.66615,5.698592,0.1101393,1.47,0,1.042667,310.0002,2.707548,0.05650564,1.17,0,-999,0,9.85,81,9.73,9.83,0.2,0,0,8.9,13.25,0.2,102.1665,3.308,3.308,3.305,100,0,0,0,0.61,152.6,152.6
"2022-05-15 01:36:00",2937380,1.2,16.58783,8.018966,0.1244722,1.38,0,1.271333,310.6001,2.274384,0.05438953,1.36,0,-999,0,9.74,81.3,9.61,9.73,0.2,0,0,8.9,13.25,0.2,102.1694,3.305,3.308,3.305,100,0,0,0,0.61,152.6,152.6
"2022-05-15 01:37:00",2937381,1.204,18.93069,5.270534,0.1772682,1.5,0,1.29,311.0662,4.234068,0.03932769,1.36,0,-999,0,9.65,81.6,9.56,9.68,0.2,0,0,8.89,13.25,0.2,102.1739,3.308,3.308,3.306,100,0,0,0,0.61,152.6,152.6
"2022-05-15 01:38:00",2937382,1.159333,17.33314,6.555915,0.1196922,1.35,0,1.234667,311.7314,4.863373,0.08808078,1.36,0,-999,0,9.6,81.9,9.54,9.64,0.2,0,0,8.88,13.25,0.2,102.1698,3.306,3.308,3.305,100,0,0,0,0.61,152.6,152.6
"2022-05-15 01:39:00",2937383,1.225333,17.53277,6.374203,0.142729,1.48,0,1.225333,312.1339,2.499633,0.08920886,1.39,0,-999,0,9.65,82.3,9.67,9.74,0.2,0,0,8.88,13.24,0.2,102.1701,3.304,3.306,3.302,100,0,0,0,0.61,152.6,152.6
"2022-05-15 01:40:00",2937384,1.298667,17.65322,6.597144,0.1375435,1.48,0,1.157333,318.2668,2.015559,0.06506065,1.27,0,-999,0,9.64,82.7,9.64,9.73,0.2,0,0,8.88,13.25,0.2,102.1711,3.308,3.308,3.304,100,0,0,0,0.61,152.6,152.6
"2022-05-15 01:41:00",2937385,1.216667,20.99886,4.082009,0.0576965,1.3,0,1.134667,317.1336,2.894926,0.05239167,1.24,0,-999,0,9.69,82.7,9.7,9.76,0.2,0,0,8.86,13.25,0.2,102.1646,3.308,3.308,3.307,100,0,0,0,0.61,152.6,152.6
"2022-05-15 01:42:00",2937386,1.318,17.54345,6.942021,0.08026621,1.54,0,1.113333,315.5992,2.939011,0.0738166,1.22,0,-999,0,9.64,82.8,9.67,9.74,0.2,0,0,8.85,13.23,0.2,102.1689,3.306,3.308,3.304,100,0,0,0,0.61,152.6,152.6
"2022-05-15 01:43:00",2937387,1.220667,17.19445,6.065837,0.1433628,1.49,0,1.23,314.2672,3.234389,0.0778888,1.34,0,-999,0,9.6,82.7,9.59,9.69,0.2,0,0,8.83,13.25,0.2,102.1684,3.308,3.308,3.306,100,0,0,0,0.61,152.6,152.6
"2022-05-15 01:44:00",2937388,1.224,10.73571,6.367599,0.1485845,1.5,0,1.138,315.4011,3.665186,0.09166606,1.29,0,-999,0,9.54,82.7,9.54,9.62,0.2,0,0,8.83,13.25,0.2,102.1663,3.308,3.308,3.306,100,0,0,0,0.61,152.6,152.6
"2022-05-15 01:45:00",2937389,1.168,14.46453,5.827882,0.1149028,1.42,0,1.258667,311.5311,4.095698,0.1070742,1.42,0,-999,0,9.5,82.6,9.5,9.56,0.2,0,0,8.83,13.24,0.2,102.1675,3.308,3.308,3.305,100,0,0,0,0.61,152.6,152.6
"2022-05-15 01:46:00",2937390,1.078667,13.14415,8.033557,0.1209885,1.34,0,1.160667,316.3337,2.890249,0.1014867,1.35,0,-999,0,9.46,82.7,9.44,9.53,0.2,0,0,8.81,13.24,0.2,102.1685,3.307,3.308,3.307,100,0,0,0,0.61,152.6,152.6
"2022-05-15 01:47:00",2937391,1.338667,27.53533,5.952687,0.1262731,1.55,0,1.124667,322.3038,7.787244,0.09666898,1.23,0,-999,0,9.5,82.9,9.49,9.55,0.2,0,0,8.79,13.25,0.2,102.1676,3.305,3.308,3.305,100,0,0,0,0.61,152.6,152.6